Regional Weather Roundup
Issued by NWS Northern Indiana

Home | Current Version | Previous Version | Graphics & Text | Print | Product List | Glossary On
Versions: 1 2 3 4 5 6 7 8 9 10 11 12 13 14 15 16 17 18 19 20 21 22 23 24 25 26 27 28 29 30 31 32 33 34 35 36 37 38 39 40 41 42 43 44 45 46 47 48 49 50
000
ASUS43 KIWX 280800
RWRIWX

KIWX WEATHER ROUNDUP
NATIONAL WEATHER SERVICE NORTHERN INDIANA
400 AM EDT SAT MAY 28 2016

NOTE: "FAIR" INDICATES FEW OR NO CLOUDS BELOW 12,000 FEET WITH NO
SIGNIFICANT WEATHER AND/OR OBSTRUCTIONS TO VISIBILITY.

* THESE STATIONS ARE NOT UNDER NWS QUALITY CONTROL. THEY ALSO MAY NOT
  REPORT WEATHER SUCH AS PRECIPITATION OR FOG.

INZ001>027-280900-
NORTHERN INDIANA

CITY           SKY/WX    TMP DP  RH WIND       PRES   REMARKS
SOUTH BEND     CLOUDY    71  63  75 S7        29.93S
GOSHEN         PTCLDY    72  60  66 S8        29.95S
ANGOLA*          N/A     68  61  77 SE3       29.97S
FORT WAYNE     PTCLDY    70  63  78 SE8       29.97F
PERU/GRISSOM   CLOUDY    74  64  71 S10       29.94S

$$
INZ028>050-280900-
CENTRAL INDIANA

CITY           SKY/WX    TMP DP  RH WIND       PRES   REMARKS
LAFAYETTE      CLOUDY    73  62  68 S7        29.92R
KOKOMO*        CLOUDY    73  63  68 S10       29.96R
MUNCIE*        CLOUDY    75  64  68 S7        29.97F
INDIANAPOLIS   CLOUDY    73  64  73 S9        29.95R

$$
MIZ043>046-050>051-056>058-064>065-071>073-077>080-280900-
SOUTHWEST LOWER MICHIGAN

CITY           SKY/WX    TMP DP  RH WIND       PRES   REMARKS
BATTLE CREEK   PTCLDY    68  59  73 S8        29.96S
BENTON HARBOR  CLOUDY    70  65  84 S6        29.91R
COLDWATER*     CLEAR     69  61  75 S5        29.97S
HILLSDALE*     CLEAR     69  57  64 S3        29.99S
HOLLAND        CLOUDY    69  65  86 S7        29.92S
GRAND RAPIDS   PTCLDY    69  64  84 S6        29.93S
KALAMAZOO      PTCLDY    72  59  63 S5        29.95S
STURGIS*       CLEAR     69  60  72 S5        29.96R
THREE RIVERS*  FAIR      70  59  68 S6        29.95S

$$
OHZ001>008-015>018-024>025-280900-
NORTHWEST OHIO

CITY           SKY/WX    TMP DP  RH WIND       PRES   REMARKS
DEFIANCE       CLEAR     72  61  68 S3        29.98S
FINDLAY        CLEAR     69  59  70 S6        29.99F
TOLEDO EXPRESS CLEAR     70  61  73 S6        29.98S
TOLEDO METCALF CLEAR     70  60  70 S6        30.00S
LIMA           CLEAR     68  62  81 SE6       30.00F

$$
AND FOR LAKE MICHIGAN COASTAL AND OPEN LAKE BUOY OBSERVATIONS

STATION/POSITION TEMP    WIND        PRES    VSBY  WAVE
                 AIR SEA DIR/SP/G                  HT/PER
                 (F)     (DEG/KT/KT) (MB)    (MI)  (FT/S)
CALUMET HARBOR    70     170/  8/ 11 1011.2S
MICHIGAN CITY     70     130/  8/ 10   N/A
BURNS HARBOR      70     160/ 10/ 16 1012.9R
SAINT JOSEPH      70      CALM  /  4 1013.2F
SOUTH LAKE BUOY   55 50  150/ 10/ 12 1011.3          2/ 3
4 MI NW BRIDGMAN  66 61  140/  8/ 10   N/A           1/ 3
MICHIGAN CITY     65 58  170/  8/  8   N/A           1

$$
&&




USA.gov is the U.S. government's official web portal to all federal, state and local government web resources and services.